Theta_e
331 333 335 342 345 347 348 347 347 348 349 348 346 347 346 344 343 342 345 346 345 344 343 342 341 341 342 341 341 343 342 343 342 345 344 346 347 347 344 343 344 346 345 344 345 342 344 347 347 347 345 343 343 346 346 343 346 345 343 343 342 341 340 342 343 343 340 339 343 342 343 346 347 347 347 347 345 347 347 345 344 344 344 345 345
328 335 334 340 343 347 347 346 345 345 346 347 346 346 347 347 344 344 344 345 344 344 343 343 343 342 341 340 340 341 342 341 341 343 344 345 346 345 345 343 344 344 344 345 347 344 343 343 340 340 344 345 348 348 348 347 347 345 343 340 340 340 340 341 343 342 337 335 334 336 338 340 342 340 341 342 344 347 349 348 348 345 344 345 347
332 330 334 336 341 346 346 345 345 347 347 346 348 347 347 346 344 346 345 344 344 344 343 342 344 345 343 343 343 343 346 346 344 344 345 345 346 346 344 344 345 345 345 344 345 346 345 345 340 341 341 341 346 345 347 347 348 347 344 338 338 339 338 343 344 343 335 337 338 334 326 326 333 335 340 341 344 346 347 348 349 346 344 346 346
332 331 333 335 340 344 345 344 345 347 346 346 346 346 346 345 344 345 345 345 344 344 343 345 345 346 345 346 346 345 343 346 342 342 344 345 345 346 344 344 344 345 345 344 344 347 347 345 340 342 340 342 345 345 346 346 347 346 346 345 343 338 337 341 345 346 338 338 329 327 329 327 321 325 335 341 345 344 345 346 345 346 348 347 347
332 332 332 334 337 342 343 345 346 345 346 346 345 346 345 345 344 344 345 345 345 344 344 345 345 344 344 345 346 345 345 345 342 341 343 344 343 343 343 344 343 344 346 345 344 345 346 344 341 339 340 346 348 346 345 346 346 344 346 346 343 341 335 337 343 345 345 343 335 331 327 323 321 330 330 333 340 342 342 346 346 346 346 348 347
333 332 330 334 337 341 343 344 345 346 346 346 347 347 347 345 345 344 343 344 344 345 345 344 343 341 340 338 337 337 339 337 335 337 340 341 340 342 344 344 344 344 345 346 345 344 343 342 339 336 339 347 346 346 346 346 346 344 346 346 343 343 339 334 334 345 344 346 344 340 338 327 328 332 326 324 336 342 344 343 343 345 346 344 345
330 331 330 331 336 339 342 342 342 345 346 348 347 346 347 345 345 343 343 343 345 345 345 344 342 342 340 339 339 338 337 338 341 341 342 343 344 342 342 344 344 342 343 342 340 341 342 343 339 337 338 344 346 346 346 346 344 345 347 346 343 341 341 334 332 337 341 344 344 344 342 339 333 331 326 332 323 334 339 339 339 341 346 344 345
327 327 330 332 335 338 341 341 342 343 347 346 345 344 345 345 344 343 343 343 345 345 345 343 342 341 340 340 339 339 339 339 341 341 342 344 343 344 343 343 342 342 342 342 343 343 344 342 340 339 338 339 343 345 345 346 345 346 347 346 345 345 343 339 339 341 335 337 343 342 340 339 340 339 338 334 331 324 329 337 339 343 344 346 347
329 327 330 332 334 338 340 340 342 344 344 343 344 343 344 345 344 343 343 344 344 345 344 344 343 342 341 340 339 340 340 340 341 341 340 341 339 339 340 339 339 342 341 342 343 343 343 343 342 341 341 342 343 346 344 344 346 345 346 346 345 345 345 343 340 337 335 335 337 340 340 339 340 341 341 341 333 329 327 331 334 340 344 345 347
332 331 331 334 335 337 340 342 342 342 344 343 342 342 344 343 343 342 343 343 343 344 344 344 344 342 342 341 339 339 340 340 341 339 339 340 338 339 338 337 338 340 342 341 343 343 343 344 344 344 344 345 345 343 342 339 344 345 345 346 346 344 343 341 338 338 337 339 341 338 337 337 337 337 338 338 337 336 328 329 330 334 333 338 344
333 333 335 337 339 339 340 340 340 342 343 343 342 342 343 343 343 341 343 343 344 344 343 343 343 343 341 341 340 339 339 338 339 339 339 338 337 338 341 338 337 337 338 338 343 344 344 344 344 344 346 346 343 340 341 344 344 345 347 347 345 342 338 337 338 338 339 343 343 339 338 334 333 332 334 336 337 335 331 331 333 333 333 332 339
334 334 334 337 339 338 338 337 338 339 340 340 341 341 342 343 342 341 343 343 343 342 343 342 342 342 342 341 339 340 339 338 338 338 339 338 340 339 340 339 337 339 339 338 342 342 343 343 344 344 345 345 343 344 345 345 346 345 344 338 338 340 340 337 336 337 344 343 343 341 341 336 332 331 334 336 336 334 333 331 329 332 332 333 338
333 334 335 336 335 335 335 335 336 337 337 339 340 341 341 342 342 341 341 343 343 343 342 343 342 342 341 341 340 340 340 339 339 339 340 338 339 340 339 337 335 334 336 335 342 341 340 342 343 343 343 342 342 342 345 346 345 345 340 336 339 339 338 338 336 342 343 340 340 344 344 340 336 338 340 337 335 336 334 329 329 331 329 329 334
332 334 334 334 334 334 335 335 336 336 337 338 339 340 340 341 343 342 341 342 342 342 342 341 342 342 342 341 341 340 340 340 340 339 340 340 339 339 341 341 339 339 338 339 340 337 339 341 343 344 344 342 343 343 345 345 344 343 341 339 341 341 341 340 341 341 343 344 344 342 343 338 336 337 340 339 336 335 332 330 331 330 331 327 332
329 330 332 333 334 336 335 336 336 336 337 338 338 338 339 340 342 342 342 342 341 340 341 340 340 340 341 341 341 341 340 340 339 340 341 340 341 340 339 341 342 340 339 341 341 341 340 340 341 342 343 343 340 342 343 345 344 343 338 343 341 342 341 339 339 340 338 339 341 340 338 337 338 343 341 337 337 336 335 333 332 329 329 333 329
325 328 329 331 334 336 336 336 336 336 337 338 338 338 339 340 342 342 341 341 341 340 340 340 340 341 341 341 341 341 341 341 340 340 341 342 342 340 340 340 340 342 343 342 342 341 340 340 341 341 342 340 338 339 341 343 343 341 341 339 340 342 338 338 340 339 339 340 340 340 336 336 339 339 340 340 338 339 339 339 336 331 328 325 327
325 326 327 328 330 334 336 336 336 336 337 337 337 338 339 339 340 340 341 341 341 340 340 340 340 340 341 341 341 341 341 340 340 340 341 341 341 341 340 340 341 341 343 343 340 340 341 342 342 342 343 343 339 340 344 344 342 341 340 341 341 340 340 340 340 340 341 341 341 339 337 336 337 337 341 340 341 340 340 340 340 337 334 329 327
324 325 327 328 329 330 333 334 334 334 335 337 338 339 340 340 339 339 339 339 340 339 339 339 340 340 341 341 341 340 341 341 340 340 341 340 341 341 341 340 340 340 342 343 342 340 340 341 343 341 339 341 345 345 344 343 343 342 340 341 342 341 340 340 340 340 340 339 339 340 336 333 334 337 341 341 342 342 342 342 340 342 341 334 330
322 324 324 325 324 327 330 331 332 332 334 336 337 338 339 338 338 338 339 339 339 339 339 339 340 339 340 340 341 341 341 341 341 341 342 340 340 340 340 340 341 341 341 342 342 340 340 341 339 337 340 342 344 345 344 344 344 343 342 341 340 340 338 338 340 339 338 339 338 337 334 333 335 339 341 342 342 343 342 340 340 340 340 341 337
321 322 323 322 322 323 325 330 331 332 333 334 337 339 337 338 337 338 339 340 339 339 339 338 339 340 340 340 341 341 341 340 340 340 340 340 340 339 339 340 341 341 341 341 342 342 342 339 341 341 341 341 341 343 340 341 343 344 344 343 341 339 338 338 339 340 339 339 338 338 335 333 337 339 340 341 341 343 343 340 341 339 339 340 338
322 322 323 322 321 321 322 325 329 330 332 333 333 334 336 337 337 338 339 339 339 340 339 339 340 341 341 341 341 341 340 341 341 341 340 340 340 340 340 340 340 340 341 340 340 341 342 342 341 341 337 342 341 343 342 342 341 341 343 342 341 340 338 339 339 339 339 339 338 338 337 337 339 339 340 341 341 342 342 341 341 340 337 339 338
322 323 324 324 323 323 323 323 324 324 327 330 333 334 337 336 336 336 336 336 338 339 341 341 340 340 340 341 341 341 340 340 339 339 340 339 340 341 341 341 340 341 341 340 340 340 343 342 339 342 342 339 338 342 342 342 340 340 342 342 342 341 339 338 339 337 338 338 339 339 338 338 340 339 340 340 341 341 341 340 340 339 337 337 342
320 322 323 324 325 325 324 325 324 322 322 324 325 328 331 335 335 331 333 337 338 341 342 341 340 341 341 340 340 338 337 338 338 339 338 339 339 341 341 340 340 340 341 340 341 342 342 338 342 342 341 341 342 342 343 342 342 341 341 343 342 341 339 339 338 337 337 338 338 339 338 339 341 340 340 341 338 339 341 339 340 340 340 339 341
318 321 322 325 325 325 324 322 321 320 320 322 322 322 325 328 330 331 331 333 334 335 331 330 334 336 337 339 338 338 337 336 336 337 338 338 339 340 341 341 340 340 339 340 342 343 342 343 341 340 340 341 342 341 342 343 342 341 341 340 341 342 341 340 338 337 337 337 336 336 338 340 341 339 339 337 336 338 340 339 340 340 342 341 342
312 316 320 323 324 322 320 320 321 320 319 320 321 322 324 327 327 328 329 330 329 331 331 332 331 331 334 337 337 337 336 336 336 336 337 338 338 338 338 338 340 340 339 340 341 342 343 342 342 340 340 340 342 342 342 342 341 341 339 339 339 339 340 339 339 338 337 338 337 336 337 338 340 339 339 339 338 339 338 339 339 339 340 341 342
312 313 317 318 321 319 318 319 318 321 320 320 319 320 321 323 322 325 327 331 331 333 331 331 332 332 332 333 336 337 337 337 337 337 337 338 338 338 337 337 338 339 339 339 339 340 340 340 341 341 340 341 341 342 341 340 339 341 342 341 340 340 340 339 339 339 339 338 338 337 338 338 339 338 338 339 339 338 338 338 339 339 340 341 341
310 312 314 318 316 319 317 317 317 318 320 319 319 319 318 321 322 323 324 329 331 331 332 331 331 332 333 334 336 336 338 338 337 337 338 337 337 338 337 337 338 338 338 338 338 338 339 339 340 341 340 341 341 341 342 341 340 341 341 341 342 342 340 340 340 340 340 340 339 338 339 341 340 339 338 337 337 338 338 338 339 339 341 340 340
308 309 310 314 317 319 318 319 318 316 318 318 318 316 317 320 320 321 323 325 327 328 329 330 330 331 331 333 336 336 337 337 337 337 338 338 337 337 337 338 338 338 338 337 337 337 339 339 340 340 342 342 341 340 339 340 341 342 343 343 344 344 342 342 342 341 341 341 341 341 341 341 341 341 341 341 340 337 336 332 336 340 341 340 339
306 307 308 309 310 313 316 315 316 318 317 316 315 316 316 316 317 318 322 324 325 325 324 326 329 331 331 332 334 336 336 336 335 335 335 336 336 337 338 338 338 338 338 338 338 338 338 338 339 340 340 341 341 341 340 341 340 342 343 343 343 343 343 343 343 343 343 343 343 343 343 343 343 340 339 339 339 338 338 334 340 340 340 340 340
305 306 307 308 308 310 311 312 315 317 318 315 314 314 315 317 316 315 316 321 323 323 323 323 324 328 330 331 332 335 335 335 334 335 335 335 335 336 336 337 337 337 337 338 338 338 338 337 338 339 340 341 341 342 340 333 332 342 342 343 344 344 343 343 342 342 342 342 343 344 344 342 341 339 338 331 325 327 331 338 342 341 340 339 337
301 304 306 306 307 309 311 311 312 316 317 317 319 318 317 316 314 315 318 319 319 321 322 323 323 324 327 330 330 330 334 334 334 335 335 334 334 335 335 335 336 336 337 337 337 337 337 338 338 339 340 341 341 342 324 314 316 318 339 343 343 343 343 342 340 339 339 340 342 343 344 342 341 339 338 324 321 319 320 320 322 326 333 337 338
300 300 304 306 307 307 309 311 311 313 316 318 317 317 317 315 316 318 319 319 320 318 319 320 321 322 324 327 328 329 329 331 332 333 334 334 335 334 334 335 335 335 336 337 337 337 337 338 339 339 340 340 340 332 309 308 308 309 320 343 343 342 342 341 340 339 338 338 339 340 342 343 342 343 343 340 329 319 315 315 313 315 316 316 313
301 300 302 304 306 307 308 310 312 313 314 317 318 316 316 318 319 320 319 319 318 317 317 317 318 317 320 323 323 324 327 328 328 330 331 333 333 335 335 335 335 336 336 335 336 337 336 337 338 339 340 340 341 318 305 306 307 306 307 324 343 344 342 342 342 340 339 338 338 339 339 341 342 340 340 340 340 337 320 316 318 317 317 312 308
301 301 300 301 304 306 308 309 311 313 315 316 319 317 316 319 319 321 320 319 317 317 316 316 316 315 318 320 321 321 322 324 327 328 328 329 329 330 334 336 335 336 334 335 336 335 336 337 338 338 339 341 342 318 305 306 306 303 304 310 341 343 343 343 342 342 341 340 339 339 338 340 342 343 342 343 343 340 340 335 333 335 337 334 317
298 299 300 300 301 304 306 308 308 310 313 317 316 317 320 319 320 318 318 319 318 316 318 317 316 316 316 316 317 318 318 320 323 325 327 327 328 330 330 331 334 335 334 334 333 333 336 337 338 338 337 337 341 307 303 303 303 302 301 305 340 342 343 343 343 343 343 342 341 340 341 341 342 343 344 342 344 344 343 339 338 339 339 340 340
297 299 300 300 299 299 303 305 308 308 312 316 316 319 320 318 318 318 317 317 315 314 315 317 316 317 316 314 316 313 315 316 317 320 322 324 326 327 327 329 329 331 334 335 337 337 336 336 337 337 336 336 339 303 301 301 302 300 299 324 336 338 340 342 343 343 344 343 343 342 342 340 341 341 335 319 329 344 344 342 340 341 340 340 341
298 299 299 300 300 300 301 304 305 306 309 312 317 318 319 318 317 317 316 315 314 312 310 312 311 311 312 314 315 311 311 312 313 315 317 319 320 322 325 328 327 328 328 330 333 334 337 337 336 336 334 330 333 311 298 301 300 298 306 334 336 337 338 340 342 344 343 344 344 343 343 341 341 341 327 308 311 324 343 341 341 341 341 341 339
298 299 300 300 299 299 300 300 301 302 306 309 313 318 320 318 317 316 315 315 314 311 310 310 309 309 309 310 310 311 314 311 311 311 314 317 318 319 319 320 322 325 326 328 328 329 331 335 336 335 335 335 333 316 298 301 299 298 315 334 336 335 337 338 340 343 344 344 344 341 342 343 343 343 312 306 307 325 341 340 340 339 339 339 340
299 298 298 299 299 298 299 300 299 299 302 307 310 316 318 316 315 314 313 313 312 312 312 312 311 310 309 311 310 309 309 311 310 312 313 313 314 316 318 320 320 320 319 322 323 326 329 330 331 333 330 330 334 323 298 301 298 298 310 334 335 335 335 337 338 339 342 342 343 341 336 336 341 336 305 306 304 326 341 341 339 339 337 338 340
301 301 301 302 301 300 298 298 298 299 300 302 308 313 313 313 313 314 313 312 310 308 309 312 313 313 312 312 313 312 311 310 310 312 312 312 313 315 316 317 317 317 318 317 316 318 321 327 329 330 331 333 333 335 326 298 298 297 300 328 333 332 332 336 338 337 338 340 341 343 336 314 310 311 303 301 304 310 338 342 341 337 337 336 339
300 301 303 301 300 300 299 298 298 300 300 300 305 308 311 312 314 313 313 313 312 312 312 312 313 314 315 314 314 313 313 313 312 312 313 312 312 312 312 313 314 315 316 317 319 319 318 319 323 326 329 330 331 331 327 297 298 297 297 304 327 331 332 331 334 335 335 337 338 339 342 319 308 308 303 298 301 303 316 342 342 340 340 338 329
302 301 302 301 299 299 299 300 300 300 299 298 301 305 307 309 311 313 314 314 314 314 313 313 313 313 313 314 315 316 317 315 314 314 313 313 313 313 312 313 311 311 313 313 315 316 318 319 319 319 324 327 330 327 329 305 301 298 297 295 320 329 328 328 328 328 330 335 337 339 341 323 304 306 305 301 299 301 302 336 341 318 316 313 334
299 300 302 301 300 299 299 298 300 300 300 299 298 301 305 307 309 311 311 312 312 312 311 312 312 312 313 314 315 317 317 317 317 316 315 314 314 314 314 313 313 313 314 313 313 314 314 314 318 322 320 321 326 329 315 326 304 301 297 295 298 311 308 322 326 327 329 330 335 338 339 323 300 302 303 302 300 299 303 322 314 309 309 307 319
298 300 299 301 300 299 298 299 300 300 299 298 298 297 299 301 304 309 310 311 310 310 310 310 312 313 313 313 315 317 316 316 317 317 315 315 314 314 313 313 312 311 311 311 311 313 313 312 313 314 318 320 322 323 313 310 320 300 299 297 296 295 296 315 323 326 329 330 329 329 321 298 302 299 300 300 300 301 313 307 304 304 303 308 334
298 299 300 301 300 301 300 300 299 298 298 298 298 297 297 298 303 306 307 308 307 307 309 311 312 313 314 314 314 313 314 315 317 317 316 314 314 314 311 312 313 311 310 310 309 310 309 310 310 313 314 315 318 320 324 316 304 306 299 298 296 294 296 294 313 322 323 326 311 298 297 298 299 300 298 298 299 301 300 302 302 301 313 328 330
299 299 299 299 299 301 301 300 299 299 300 300 300 299 298 299 302 304 304 306 306 304 305 305 305 306 308 310 310 311 312 313 315 315 316 315 314 313 311 310 311 311 310 309 309 308 307 308 308 310 311 316 318 318 319 325 316 314 308 298 297 296 300 300 305 315 304 298 297 299 299 300 305 308 312 316 321 321 301 299 299 304 319 324 328
299 299 299 299 299 298 299 300 299 300 300 301 302 303 302 303 304 304 305 306 304 304 305 305 306 306 306 307 307 307 308 311 315 314 313 312 311 312 312 309 309 309 309 309 309 308 308 307 308 309 310 310 315 318 318 319 321 324 326 325 318 319 305 300 311 320 312 314 313 308 313 307 306 304 307 310 314 314 314 314 313 314 317 323 327
300 300 300 299 299 298 297 298 300 300 300 300 301 301 303 303 304 304 304 303 303 304 304 304 304 305 305 305 305 306 308 307 307 308 310 312 311 310 309 308 308 308 308 308 308 307 307 309 309 310 310 309 309 313 318 320 320 316 315 316 319 320 323 324 324 326 327 326 324 315 312 317 320 321 321 320 322 324 322 321 325 322 319 321 324
300 300 300 299 299 299 299 298 298 301 302 301 300 301 301 302 302 303 304 303 303 302 303 305 306 305 304 305 306 307 306 305 306 308 308 309 309 309 309 311 312 312 311 309 309 308 309 311 311 310 310 310 311 311 322 303 315 301 313 315 315 316 318 318 315 299 316 319 321 321 320 321 322 320 320 321 322 322 321 321 324 326 322 321 322
301 301 300 300 300 300 300 299 299 301 301 302 302 302 302 302 302 303 302 302 303 303 304 304 303 303 303 304 306 306 306 306 306 306 307 309 301 300 305 308 307 304 300 300 299 306 308 309 310 312 314 311 312 314 297 295 299 299 298 296 298 297 297 305 302 295 303 315 317 319 320 320 320 322 322 321 322 322 322 321 321 313 321 321 321
300 301 300 299 300 300 301 300 299 300 300 301 302 303 304 304 304 303 302 302 302 303 303 303 302 302 301 303 304 305 306 306 306 306 307 306 307 312 296 297 299 300 301 297 297 298 297 297 310 309 310 303 303 303 301 300 296 295 295 295 295 295 294 294 294 305 312 315 316 317 319 320 320 321 321 322 322 323 322 322 323 322 321 320 317
Wind_Speed
1 1 3 8 11 12 12 12 12 12 12 14 15 14 14 13 13 14 11 11 10 10 10 10 10 10 9 10 10 9 9 7 8 8 7 7 8 8 8 7 8 8 7 7 7 6 6 5 5 7 6 6 9 8 8 8 8 7 7 6 7 6 6 5 4 4 5 5 5 5 5 6 6 6 6 5 4 3 3 3 2 2 3 3 4
2 2 3 8 10 12 12 12 14 15 14 15 15 14 14 14 14 12 12 11 11 10 9 8 9 9 9 9 8 8 8 8 8 7 7 7 8 8 8 8 9 8 7 8 7 9 6 6 5 3 4 7 8 7 7 5 5 6 6 5 6 6 6 6 4 5 6 6 6 5 5 5 6 6 6 5 5 3 2 2 2 3 2 3 3
4 2 5 7 12 14 13 13 14 15 15 15 14 14 14 13 12 12 11 12 10 10 9 9 9 7 9 8 9 7 7 7 6 6 7 7 8 8 8 8 9 8 9 9 8 9 10 7 6 6 7 10 8 7 7 6 5 5 6 6 6 7 6 6 6 7 5 5 5 4 6 6 5 5 5 4 4 3 3 3 2 3 4 3 3
6 4 5 7 10 12 13 13 14 13 13 13 14 14 12 12 12 12 11 11 10 11 10 9 9 9 9 8 7 6 6 5 5 7 7 8 8 8 7 8 9 8 9 10 8 8 9 7 5 5 8 10 7 7 7 7 6 5 4 6 6 7 7 7 7 7 6 4 6 7 3 4 6 8 6 4 4 4 4 3 4 3 3 3 3
8 6 4 7 10 12 12 12 13 14 14 14 14 13 10 14 14 13 11 11 10 11 11 9 9 8 8 8 6 6 5 5 2 5 7 7 7 8 8 8 9 8 9 10 9 9 8 6 5 5 8 7 5 6 6 6 7 7 6 5 6 5 7 6 7 7 8 6 6 4 5 7 6 4 6 5 4 4 5 4 4 4 5 5 4
7 6 5 7 9 10 11 13 13 12 13 13 13 13 12 13 14 14 11 11 11 12 12 10 9 9 9 8 8 8 8 8 9 9 8 9 9 8 9 9 9 9 9 9 9 8 9 8 7 6 9 6 6 6 6 5 7 8 7 6 6 4 2 2 5 7 7 7 7 7 6 3 4 2 4 4 3 3 3 5 5 5 4 5 4
6 4 5 5 7 8 9 11 12 11 11 11 11 13 12 14 14 14 13 12 11 12 13 10 10 10 11 10 9 9 10 8 8 9 8 8 8 9 9 10 10 10 9 9 10 10 9 10 9 7 8 7 7 6 6 7 7 7 6 6 6 6 6 5 10 7 6 7 7 7 7 6 7 5 5 5 3 4 4 4 5 5 4 4 4
9 6 4 3 3 5 7 9 11 10 9 11 11 12 14 14 15 15 12 12 12 12 13 12 11 11 11 11 10 9 10 9 9 8 8 8 8 8 8 7 10 10 9 10 10 10 10 9 8 9 10 10 8 7 7 7 7 6 7 7 6 6 7 8 6 4 6 7 7 7 8 8 7 6 5 5 2 6 3 5 4 5 5 4 3
9 8 6 3 2 5 6 7 9 9 10 11 10 11 13 13 14 15 13 13 12 14 13 13 11 11 11 11 11 10 10 9 9 8 9 9 9 8 8 7 4 7 10 11 11 12 11 11 12 12 11 10 8 8 6 7 8 7 7 7 7 6 6 6 5 4 5 5 7 7 7 6 5 5 4 4 5 5 7 8 6 5 4 4 4
8 8 7 4 1 3 5 6 8 9 9 10 10 11 12 13 14 16 14 12 13 14 13 14 12 12 11 12 13 11 10 9 9 10 10 9 10 10 10 8 7 8 8 11 12 12 12 11 11 12 12 11 9 8 8 11 9 8 7 7 6 6 4 4 5 5 8 8 3 5 6 4 5 5 5 5 5 6 6 4 6 6 6 5 5
9 8 8 6 4 0 3 6 7 7 6 8 9 10 11 12 15 16 15 12 13 14 15 14 13 12 12 13 14 14 13 12 11 11 10 9 9 10 9 9 9 7 6 8 11 11 11 11 11 11 10 9 9 9 10 9 7 7 6 7 7 7 6 6 6 6 9 7 7 5 6 4 4 6 6 6 5 4 5 4 2 5 4 6 5
9 9 9 7 4 3 1 4 6 7 7 8 9 11 12 13 14 16 15 13 13 14 14 14 13 13 13 14 15 14 13 11 13 13 12 13 11 10 9 7 8 8 5 5 8 9 9 10 10 10 9 9 10 9 8 7 7 6 5 3 5 8 6 6 5 10 10 7 7 7 4 2 5 6 7 5 5 5 5 5 5 4 4 6 6
9 8 7 7 6 4 3 3 4 7 8 10 11 10 11 12 15 16 16 14 13 13 14 15 14 13 13 13 14 12 13 13 11 10 11 11 10 10 11 10 9 7 8 9 8 9 9 10 10 9 8 9 9 9 8 8 8 7 5 7 8 8 7 8 8 10 9 7 6 6 5 4 5 6 7 3 5 3 5 5 4 3 4 5 6
10 9 8 7 6 6 5 4 4 5 8 10 11 11 11 11 14 16 15 14 12 14 14 15 15 14 14 13 12 11 11 11 9 9 9 9 10 11 11 11 11 12 12 11 10 11 10 10 11 10 9 9 8 8 8 8 7 7 8 10 9 7 8 9 9 8 7 7 5 4 4 4 4 9 6 4 5 5 7 6 3 3 4 4 5
9 9 10 9 7 6 5 6 5 5 7 9 10 11 11 12 12 14 14 14 14 14 13 15 13 14 14 13 12 11 11 10 9 9 10 10 9 10 11 10 9 10 11 10 11 11 12 11 12 12 12 7 6 6 8 7 7 7 7 7 6 7 8 7 8 9 8 9 8 5 4 4 7 8 3 6 6 6 6 4 1 3 4 4 2
9 9 9 10 11 8 5 5 5 6 7 8 10 10 10 11 11 12 12 14 14 15 14 15 14 13 14 13 13 12 10 10 10 10 10 9 10 9 9 9 9 8 8 9 9 9 11 11 11 12 12 11 9 9 10 8 8 7 7 6 8 6 8 10 9 10 9 9 7 6 5 5 1 6 5 5 6 5 5 4 4 5 6 6 5
8 8 9 10 9 10 8 6 5 5 6 7 9 10 11 10 10 12 13 13 15 14 15 15 14 13 13 12 12 12 12 13 12 12 12 11 10 9 9 9 9 8 7 8 9 10 10 11 11 11 11 12 14 14 12 9 10 9 8 9 8 8 9 10 8 8 8 8 6 6 5 2 3 8 6 6 6 5 6 5 6 7 7 6 7
8 8 8 9 10 10 9 7 4 5 4 4 6 9 10 8 7 10 12 13 12 12 12 12 12 11 11 13 13 13 13 13 12 12 12 11 11 10 10 9 10 10 9 9 10 11 10 11 8 9 11 11 10 10 10 11 10 9 10 9 8 10 9 8 8 8 8 6 6 5 4 3 4 8 6 5 6 6 6 6 6 5 5 5 6
8 8 8 9 9 11 8 6 5 2 3 5 6 6 7 7 9 11 13 12 14 13 13 11 12 10 11 12 13 14 14 13 12 12 11 12 12 11 11 11 10 11 11 11 10 11 10 10 10 10 8 10 9 8 9 9 9 8 8 8 9 9 9 9 8 8 7 8 8 8 7 5 9 8 7 7 7 7 7 7 6 5 5 4 4
9 8 8 8 8 9 11 10 7 5 5 5 5 5 8 8 10 12 12 13 13 14 12 14 15 14 12 12 13 13 13 12 12 12 11 12 12 11 11 11 11 11 10 12 11 12 12 12 10 10 10 9 9 8 8 9 9 7 7 7 8 9 9 9 8 8 7 8 8 9 8 7 8 7 7 8 8 8 7 7 6 6 5 5 5
7 6 5 4 4 5 8 9 7 5 6 6 6 7 7 9 12 14 14 14 14 14 16 15 12 13 14 14 13 13 12 11 12 12 12 11 11 11 11 10 10 10 10 11 12 12 12 12 11 11 11 10 9 9 9 9 8 9 8 8 8 9 10 8 8 9 8 7 8 9 9 10 8 8 8 8 8 8 8 7 6 6 6 6 6
6 5 4 3 2 2 2 3 4 8 9 10 7 9 8 9 11 12 12 11 12 14 14 12 10 11 11 12 12 10 9 11 12 11 10 10 10 10 11 11 11 11 11 12 12 11 11 11 12 12 11 11 12 11 10 9 9 9 9 7 8 9 9 9 9 9 9 7 7 8 9 9 8 9 8 9 7 8 8 7 7 7 7 7 7
6 5 4 4 4 3 3 3 3 4 4 2 10 11 7 6 3 4 8 8 10 11 10 9 9 9 11 12 11 9 9 9 9 9 11 11 10 10 10 11 11 10 10 10 11 11 12 13 12 11 11 11 11 11 10 10 10 10 10 9 9 10 10 9 9 9 9 8 8 8 9 8 7 9 9 7 7 9 8 8 8 7 7 7 7
9 5 5 4 3 2 2 2 3 3 3 1 3 2 7 8 5 3 4 5 7 6 9 11 9 5 7 9 9 9 10 11 11 9 9 10 8 7 8 9 10 10 10 10 10 10 11 11 11 11 11 11 12 11 11 10 11 10 10 11 10 9 9 9 9 9 9 9 9 9 8 9 9 9 9 7 9 10 7 7 8 7 7 8 7
16 12 8 6 6 4 2 2 2 2 3 3 1 2 3 2 1 3 4 4 3 1 6 6 5 8 9 8 8 9 10 10 10 9 10 10 8 5 4 7 8 9 9 9 9 10 11 11 11 12 12 12 12 12 11 11 10 10 10 10 9 9 9 9 10 10 9 9 9 8 9 9 9 8 8 9 8 9 8 7 7 8 8 7 7
20 17 11 9 7 5 3 3 2 2 1 2 2 2 2 4 5 7 7 7 1 4 4 6 6 9 9 8 8 9 9 10 9 9 10 10 9 9 7 5 5 6 8 9 9 9 9 11 11 12 12 11 11 11 11 11 11 11 9 9 8 8 9 9 9 9 9 9 9 9 8 8 9 8 8 7 7 8 8 8 8 8 7 7 8
22 20 15 10 10 10 6 5 5 4 1 2 3 4 4 5 7 7 7 7 5 3 1 3 3 4 3 5 6 6 6 7 7 7 8 8 9 9 10 9 8 8 8 8 9 10 9 10 11 11 11 11 11 11 11 11 11 10 10 9 9 9 9 8 8 9 9 9 9 8 8 7 9 9 9 8 8 8 7 7 9 8 8 8 8
16 17 20 16 11 13 10 6 7 6 7 3 6 2 5 5 6 5 3 5 5 6 5 4 4 2 1 2 2 2 4 5 6 7 7 7 7 7 8 8 9 10 10 10 10 10 9 9 9 10 10 10 11 11 11 10 10 9 9 8 8 7 8 8 8 8 8 8 8 8 8 8 9 9 9 8 8 7 5 7 9 8 8 8 8
17 17 16 17 14 11 12 14 10 3 4 7 7 4 3 4 6 5 6 7 7 8 8 8 7 5 4 1 2 2 3 5 6 7 7 8 9 8 7 7 7 8 8 10 10 10 9 9 9 9 10 9 9 9 9 9 9 9 9 8 8 8 8 7 7 7 8 8 8 8 8 8 8 8 10 8 7 6 8 10 9 8 8 8 8
18 17 16 17 18 17 18 17 15 13 9 10 9 8 8 5 3 6 6 7 8 9 9 9 9 8 6 4 1 3 3 3 4 5 7 8 8 8 8 8 9 9 8 8 10 10 10 10 9 8 8 7 8 7 6 5 3 7 9 8 8 8 8 7 6 7 7 8 8 8 7 9 10 11 10 10 7 6 4 5 4 6 7 5 8
20 21 20 16 16 17 17 18 19 15 12 9 8 8 8 8 9 7 3 4 5 6 7 7 7 6 6 5 3 1 4 4 4 4 5 6 7 7 7 8 8 8 9 8 8 10 11 10 10 9 9 8 7 7 8 8 6 4 5 8 8 8 8 7 6 6 7 7 8 8 8 9 10 11 11 11 10 9 7 9 6 4 5 9 11
20 20 20 21 20 19 17 18 19 20 17 15 13 11 10 12 13 11 10 9 6 2 2 3 5 4 3 2 2 2 1 4 4 4 5 5 7 6 7 7 7 8 7 7 8 9 10 9 8 10 10 9 9 8 12 11 9 9 7 7 7 7 7 8 8 8 7 7 7 8 8 7 9 11 11 11 10 10 11 10 9 8 9 10 7
22 19 21 21 21 19 19 19 19 18 19 16 15 14 12 9 10 12 11 11 10 6 4 3 2 5 2 2 3 3 4 2 3 3 2 4 4 5 5 6 6 6 7 7 8 8 8 9 8 9 9 10 10 10 13 12 12 12 12 9 7 8 8 8 8 9 9 8 7 7 8 7 7 13 12 11 12 12 13 13 11 8 7 7 11
21 21 20 20 19 19 19 20 21 22 21 19 15 13 15 12 7 7 10 11 11 8 5 4 3 2 2 0 2 2 3 4 3 2 3 3 3 4 4 3 3 4 5 6 7 7 7 8 8 9 8 8 9 9 13 13 12 13 13 10 9 8 9 9 9 10 9 9 9 8 8 8 8 9 10 10 10 10 9 9 9 8 9 10 11
17 20 21 20 20 20 21 22 21 21 21 18 15 16 14 11 8 9 8 6 6 11 6 4 3 2 2 3 1 3 4 4 3 3 2 3 4 3 3 4 4 3 4 4 6 8 8 8 8 8 8 7 6 8 12 13 12 12 11 9 9 9 9 9 9 10 10 10 11 9 9 9 8 9 8 10 11 10 10 9 11 12 11 10 10
13 16 18 19 18 19 20 21 20 20 20 19 13 12 11 13 12 11 10 8 7 7 7 5 4 3 2 1 1 2 3 4 4 3 3 4 4 3 2 2 2 4 4 3 4 5 6 7 7 7 6 6 5 10 10 11 12 11 10 7 10 10 10 10 10 11 11 10 11 11 10 10 9 9 9 11 10 9 10 10 10 10 10 10 9
11 12 15 16 16 17 18 19 20 20 20 20 14 14 14 12 12 11 12 11 9 8 8 8 8 7 6 5 3 2 2 3 4 4 4 4 5 4 3 1 2 2 2 3 3 4 4 4 5 5 5 7 8 6 10 11 11 11 9 9 10 10 10 11 10 10 10 10 10 11 11 10 11 11 11 15 12 9 9 10 10 9 9 8 9
8 9 11 13 14 15 17 16 20 20 20 19 19 14 10 9 9 8 8 8 8 8 10 10 9 8 7 6 5 4 3 3 2 3 3 3 4 4 4 2 2 2 2 0 2 2 2 3 3 3 2 4 6 7 9 9 10 12 11 10 10 10 10 9 10 10 10 10 11 12 12 12 11 11 13 16 16 12 11 11 10 10 10 10 9
9 8 9 11 10 14 15 16 17 19 20 21 20 15 10 8 7 7 7 8 9 8 6 7 8 8 7 7 6 6 4 4 4 3 2 3 3 4 4 3 2 2 2 1 1 1 1 2 2 1 3 3 5 5 9 10 10 12 9 9 9 9 9 10 10 10 10 9 9 10 12 12 11 9 16 16 17 15 12 10 11 10 11 12 10
9 8 8 6 6 8 14 15 15 16 18 21 20 12 4 4 6 7 9 10 10 10 10 8 7 8 7 6 5 6 5 5 5 4 2 2 2 3 3 3 1 1 2 2 1 1 1 1 1 3 3 4 4 2 6 8 9 10 11 6 7 7 10 10 9 9 9 10 10 9 11 17 16 9 10 15 17 16 12 11 10 11 12 11 10
10 9 7 5 5 4 6 11 12 13 15 18 16 15 7 2 3 6 6 5 6 7 7 7 7 6 7 7 6 6 6 5 4 4 4 2 2 3 3 2 2 3 2 1 1 1 1 0 1 1 1 2 2 2 7 8 8 9 9 7 7 8 7 7 9 7 9 9 9 9 9 14 18 16 11 12 14 17 15 11 10 10 11 5 4
11 9 8 6 5 5 6 5 9 11 12 14 16 14 10 9 6 2 3 3 3 1 3 4 7 8 7 8 7 6 6 5 5 5 5 4 3 1 1 0 2 2 2 1 1 1 1 1 2 1 0 2 4 3 2 7 6 7 7 9 6 5 3 4 7 8 9 9 9 8 9 9 16 16 15 13 14 14 16 11 12 13 12 9 7
11 10 10 8 5 4 5 3 5 10 11 13 15 17 13 11 9 9 8 7 6 5 4 4 6 8 9 9 8 8 7 6 6 6 5 4 3 3 2 1 1 1 0 2 2 1 2 2 2 2 1 1 1 6 4 2 6 5 7 7 8 7 7 5 6 8 10 10 9 8 7 4 8 13 14 14 14 15 12 11 15 12 12 9 7
13 10 8 8 6 5 5 4 3 5 9 13 14 15 14 14 14 10 9 7 6 7 7 6 6 7 7 7 8 9 9 7 7 7 6 5 5 4 3 3 2 2 2 2 2 2 3 3 3 2 2 2 2 1 8 5 3 6 7 7 7 9 7 5 6 6 6 4 7 10 7 14 10 8 12 13 14 13 10 15 15 14 10 2 3
15 13 10 8 7 7 6 5 1 3 3 9 12 14 17 16 13 11 11 10 6 6 5 4 5 6 7 7 8 8 8 8 8 8 7 6 6 6 5 4 4 4 3 4 3 4 3 3 3 3 3 3 3 3 3 9 9 8 8 7 7 7 8 5 3 6 7 7 6 9 11 10 11 8 9 10 11 13 17 15 14 13 9 4 8
15 13 10 9 8 7 7 6 3 2 1 5 8 11 14 15 14 10 11 10 7 7 6 6 5 4 5 6 7 7 7 7 7 7 7 6 6 7 6 5 5 4 4 4 5 5 5 5 4 4 4 3 3 3 4 5 8 8 7 8 10 8 7 6 6 5 8 11 13 14 14 14 10 4 3 4 6 7 11 13 12 11 9 9 9
15 12 11 10 10 8 8 7 6 4 2 4 7 8 11 13 12 11 9 9 8 6 6 5 6 6 7 7 8 7 6 6 7 7 7 7 6 6 6 6 6 5 5 5 5 5 6 6 4 4 4 4 4 4 4 3 3 3 4 7 6 4 6 3 3 3 3 3 5 7 7 9 10 8 6 8 9 7 7 8 8 8 9 9 9
14 12 12 11 11 11 10 8 7 6 4 3 7 10 11 11 12 12 11 9 8 6 5 5 6 7 7 8 8 7 6 7 8 7 7 7 7 6 6 6 6 5 5 5 5 5 5 5 6 5 5 4 4 4 4 4 3 3 4 4 3 3 2 3 5 5 4 4 5 4 6 6 6 7 7 6 6 7 8 9 9 9 10 9 10
15 13 12 11 11 11 9 9 8 6 8 7 6 9 12 11 10 11 10 9 7 6 6 7 7 7 7 7 7 8 8 8 8 7 7 7 7 7 6 6 5 5 5 4 4 5 5 5 6 7 6 6 4 3 6 10 8 6 3 5 5 4 5 5 6 12 8 6 5 6 6 7 6 7 7 7 8 8 7 9 10 9 8 10 9
15 13 12 12 12 12 11 10 9 7 8 9 8 8 10 11 10 11 11 9 7 6 7 7 7 7 8 8 8 8 8 8 8 8 8 8 8 10 9 8 8 6 9 7 7 7 6 5 6 6 6 7 6 2 10 7 4 2 2 3 4 3 5 7 10 11 6 5 6 6 7 6 6 6 7 8 8 8 9 9 8 9 9 9 9
15 14 13 13 12 12 10 10 9 9 9 9 9 10 10 9 9 9 10 11 9 7 6 6 6 7 8 9 9 8 8 9 9 9 9 10 9 8 16 16 14 10 14 15 14 15 13 11 8 7 6 2 1 6 9 6 6 5 5 6 6 6 6 6 5 6 5 5 6 6 7 8 7 7 8 9 9 9 9 10 10 10 10 9 9
Wind_Direction
36 235 244 188 182 175 172 168 172 176 174 173 174 169 167 171 177 181 184 181 182 184 185 187 194 201 199 196 194 191 200 191 191 195 194 193 195 184 185 192 197 195 191 190 195 202 223 218 193 209 200 196 211 194 199 196 190 191 187 193 195 197 216 207 205 220 213 210 213 225 221 228 237 240 245 243 248 233 230 228 217 222 207 186 207
49 197 228 193 187 179 175 172 174 178 182 178 180 171 167 170 177 179 181 178 185 185 184 188 198 201 196 199 201 193 193 195 197 189 193 193 192 188 191 189 194 195 194 196 197 200 208 212 209 229 222 218 201 193 190 202 199 193 195 194 206 206 212 210 202 212 210 226 205 207 241 242 236 240 233 225 226 214 218 248 224 232 223 206 191
7 280 215 204 193 184 182 178 179 183 178 179 179 171 165 171 177 181 181 181 182 180 182 192 195 205 211 207 202 199 199 203 191 199 194 196 189 187 191 195 195 195 195 197 198 205 204 201 208 210 190 219 205 198 190 195 201 209 196 201 199 202 216 196 206 213 227 219 235 249 225 218 186 229 205 189 194 192 172 196 235 222 214 249 209
349 329 237 208 199 190 191 184 179 181 178 178 179 175 168 171 177 181 180 182 181 184 188 189 191 195 207 214 206 207 198 193 168 207 197 199 198 195 192 197 200 200 197 198 198 202 202 197 203 224 207 216 207 199 198 201 195 211 215 206 215 203 203 199 206 215 231 230 224 224 216 242 199 195 180 165 168 172 172 179 203 209 210 212 244
333 325 254 212 201 197 198 193 178 181 180 177 179 178 171 171 174 180 176 181 183 179 184 182 179 193 203 204 205 196 200 170 159 204 198 203 207 198 202 201 204 204 202 203 194 199 195 192 190 214 224 221 194 205 209 207 204 208 212 209 208 218 203 211 199 213 220 237 269 234 209 214 233 129 195 162 166 191 166 176 177 195 192 203 213
334 320 299 227 209 199 199 202 191 182 181 178 178 179 169 167 173 178 176 179 181 180 181 177 175 182 186 197 198 202 199 193 198 202 193 196 204 202 202 202 203 207 204 205 198 194 193 188 184 197 239 202 200 205 210 201 207 210 205 208 206 210 220 66 272 214 223 230 241 259 305 346 318 130 237 167 219 205 163 179 179 187 165 193 191
350 337 307 249 217 208 201 208 205 190 181 176 173 179 173 163 171 179 179 180 183 178 177 175 176 183 186 192 204 212 217 214 204 204 202 200 198 199 205 204 201 199 211 204 210 203 195 189 184 190 230 214 203 208 207 204 202 203 198 202 202 205 200 191 221 223 216 227 232 242 253 239 232 249 231 158 193 298 212 187 192 162 177 185 175
348 350 337 300 228 216 210 207 213 203 182 182 178 178 181 167 167 179 182 181 179 176 178 179 177 181 182 190 199 211 216 214 200 200 200 198 197 192 202 205 210 200 200 211 208 203 200 182 182 194 204 218 207 210 209 205 208 193 192 200 202 213 215 222 235 260 243 219 215 232 235 237 245 246 272 276 247 185 214 266 171 167 177 176 165
348 351 350 338 219 211 212 210 217 210 198 189 180 183 182 176 168 177 183 182 178 177 180 181 182 179 182 190 196 206 212 209 203 201 197 194 202 194 201 208 224 226 202 206 204 203 198 194 193 193 205 205 205 201 213 220 208 192 182 191 202 211 223 226 227 234 269 282 219 219 230 233 225 235 246 252 254 254 197 183 152 154 172 167 174
352 357 1 14 321 208 205 208 217 218 200 192 190 186 186 182 178 178 184 184 179 177 182 182 181 182 186 192 196 200 204 206 204 204 207 195 194 190 197 199 204 216 212 203 205 203 198 196 197 194 193 198 199 200 197 217 205 194 193 192 193 209 214 237 223 214 236 248 257 235 220 227 244 227 233 235 254 268 288 186 176 176 191 165 174
352 355 6 21 30 319 187 214 210 205 191 195 187 189 187 186 181 179 184 184 181 180 183 182 184 185 191 193 198 200 201 205 203 204 202 194 198 202 197 196 201 209 213 223 210 206 201 199 200 197 193 194 197 199 210 204 194 200 188 177 189 196 200 209 233 238 237 234 234 235 252 248 280 263 219 215 230 233 244 263 223 218 199 136 206
352 355 1 14 17 6 292 232 218 190 180 196 201 194 192 194 186 181 184 185 181 182 181 182 187 189 194 196 200 201 199 203 206 206 204 201 197 200 197 190 200 199 201 239 213 213 209 207 204 201 195 195 200 200 199 195 193 187 173 141 215 211 187 202 210 230 226 227 223 233 226 204 215 250 269 205 211 218 228 235 212 177 220 160 189
354 355 353 358 353 343 322 273 225 208 205 202 197 197 199 200 193 185 185 186 180 178 183 182 187 192 197 199 201 202 204 205 207 213 207 206 198 196 195 191 192 191 199 204 199 210 210 212 206 200 195 199 199 198 196 194 189 181 137 196 215 210 206 201 216 221 223 222 219 210 215 210 233 239 247 214 201 239 237 227 230 187 202 192 155
354 347 352 351 350 335 331 303 257 234 221 212 198 198 201 205 197 192 186 181 175 182 181 183 190 194 200 200 201 202 207 207 210 215 213 211 203 196 199 197 193 197 197 199 195 198 200 207 206 204 199 197 201 203 200 191 188 180 172 189 194 200 202 205 218 223 221 225 214 209 220 224 249 242 227 205 195 207 223 232 199 192 217 198 167
358 358 344 338 335 338 320 307 289 248 232 218 209 203 205 208 203 198 185 180 177 179 181 184 189 197 201 202 201 202 203 203 206 208 211 212 206 202 205 202 199 196 197 191 196 189 193 202 201 201 200 179 206 211 209 191 184 175 193 198 188 193 200 207 214 215 218 220 216 212 225 218 233 240 203 207 218 210 227 218 243 149 226 15 265
354 349 346 341 335 327 323 304 287 263 238 225 214 210 207 212 208 201 189 181 178 179 180 185 192 199 202 202 204 204 204 201 204 205 207 208 206 208 207 208 204 199 196 190 192 200 197 198 200 200 195 180 194 212 207 185 176 184 183 187 196 197 202 206 212 213 218 213 212 202 222 234 318 275 215 212 222 202 213 204 168 196 214 169 206
351 350 347 339 335 329 334 329 303 271 251 223 215 211 213 214 212 201 191 180 180 182 183 187 193 199 203 205 204 205 205 205 203 201 202 201 202 203 206 206 205 198 192 190 189 197 199 197 199 196 192 187 189 196 189 177 175 181 186 189 191 198 205 207 209 214 207 204 201 197 214 234 201 225 222 206 215 204 207 199 218 210 204 193 182
355 355 354 346 341 332 330 334 337 347 315 259 224 221 215 205 203 203 182 186 183 186 188 189 193 202 210 211 208 208 209 208 205 201 200 200 198 198 199 201 202 198 193 181 186 187 195 197 197 201 199 203 197 187 181 180 177 183 191 184 190 197 203 201 203 209 203 190 187 186 184 219 228 235 204 205 203 204 201 203 208 213 214 214 187
353 0 356 355 351 336 323 320 325 290 254 252 221 216 218 195 190 195 186 190 192 189 189 186 188 199 212 216 211 210 210 206 204 203 199 204 201 197 197 199 201 200 199 185 181 183 188 193 187 205 208 198 194 190 189 186 184 188 188 188 192 198 199 201 200 199 200 200 191 184 189 210 216 210 204 199 203 200 207 200 206 202 202 236 207
351 357 0 356 2 2 354 338 307 276 240 233 242 211 192 192 187 197 196 195 195 193 190 193 193 189 199 211 212 212 209 207 204 202 201 204 202 200 199 200 202 201 201 194 184 182 186 187 191 191 185 190 190 191 191 205 187 193 188 189 192 199 203 203 199 200 201 203 197 192 186 203 217 201 204 204 203 206 205 202 195 190 194 209 220
344 349 347 10 15 30 14 1 353 316 280 250 232 227 200 193 195 197 193 195 195 197 197 204 197 191 195 205 206 207 203 206 206 203 204 203 202 201 199 200 204 205 203 200 195 187 184 187 187 184 192 183 188 188 185 188 192 193 192 192 192 200 205 205 206 203 208 205 204 204 199 203 197 202 204 204 206 204 205 203 192 193 193 201 202
328 322 317 320 335 351 115 98 46 32 360 325 279 233 207 200 196 197 202 199 196 203 210 202 196 195 199 206 199 188 204 205 203 200 209 208 206 203 201 202 205 205 204 203 200 191 187 191 190 191 188 175 195 187 183 188 191 195 191 192 198 204 208 210 209 209 201 201 209 202 204 202 201 206 207 210 208 209 206 202 197 196 197 194 200
309 295 296 292 304 317 340 354 10 69 110 325 325 332 295 244 197 297 256 215 224 229 230 215 209 197 200 205 193 188 197 203 202 205 207 211 205 204 204 205 208 206 205 205 202 198 193 197 195 191 188 185 184 184 186 191 195 196 196 195 200 204 208 210 210 210 206 202 201 203 205 198 199 209 207 213 219 221 209 210 204 199 200 194 191
295 281 262 263 232 191 163 123 88 77 65 141 255 301 324 339 346 243 259 292 290 314 343 324 321 302 234 209 188 185 194 200 205 202 205 211 211 214 211 214 213 208 204 205 205 200 199 197 194 193 190 188 187 186 189 195 197 196 200 200 200 203 209 214 216 212 210 208 210 207 203 200 199 205 204 200 216 218 212 216 212 202 203 194 197
297 283 271 251 241 219 173 133 114 112 128 133 159 241 204 206 270 310 314 296 295 314 240 247 256 260 241 212 197 191 190 195 202 202 203 199 204 215 229 232 224 216 212 208 207 206 202 199 195 195 195 193 191 188 188 191 194 199 201 200 201 204 210 217 219 218 213 211 208 211 207 200 196 203 208 207 211 213 212 215 216 208 203 197 193
305 293 269 261 247 233 192 191 184 139 84 100 115 103 33 73 22 352 1 346 253 238 210 242 213 206 217 213 202 193 190 195 197 203 201 198 192 191 190 202 229 224 209 209 212 204 205 206 199 199 199 197 195 193 194 192 196 197 202 204 204 206 212 216 216 220 215 211 211 208 208 205 195 202 209 211 216 214 217 218 217 211 207 196 198
320 303 292 268 262 258 235 198 177 163 71 357 10 18 40 59 63 34 4 341 346 315 73 249 238 259 241 213 209 201 188 185 191 200 205 203 203 201 199 200 205 218 216 211 210 212 206 211 210 206 204 202 199 198 197 196 197 196 201 203 204 208 211 211 216 216 216 213 212 210 206 198 198 200 206 209 209 213 219 228 218 217 208 207 201
333 340 341 329 326 314 304 252 195 177 146 221 269 336 27 37 56 62 359 6 13 358 9 349 330 359 223 175 176 186 187 197 191 199 198 192 193 206 207 205 202 203 212 216 211 211 214 214 215 217 213 207 202 200 198 196 200 200 198 202 202 207 209 209 209 212 212 211 209 210 203 200 200 196 205 208 206 201 212 222 227 217 214 211 207
337 338 336 338 342 322 295 287 290 266 204 209 198 159 84 18 10 29 44 24 9 12 11 6 351 357 4 45 115 154 167 173 190 187 192 192 196 205 209 202 201 210 211 214 213 212 214 217 220 221 221 216 213 206 203 199 199 200 195 196 203 204 206 206 206 208 208 205 205 203 203 200 198 194 198 205 204 222 206 209 213 212 222 217 214
335 330 335 340 338 333 327 318 285 272 245 204 185 178 170 155 35 3 18 17 13 10 11 1 356 350 344 337 96 129 157 152 175 186 188 190 189 195 204 206 199 198 206 219 219 215 211 212 215 217 220 219 218 217 200 191 222 206 193 195 197 200 204 209 211 211 209 210 209 210 205 202 184 186 191 201 190 207 238 276 239 215 227 220 233
337 332 321 321 332 332 328 322 314 292 255 232 226 215 180 156 162 162 134 43 23 10 4 358 349 341 343 339 345 130 145 150 149 164 172 180 195 197 205 206 205 198 196 205 221 217 213 209 210 211 212 213 210 210 151 156 186 286 242 198 199 199 199 200 207 219 223 217 219 219 214 191 191 187 192 193 201 210 220 229 243 244 227 226 222
337 339 334 325 322 331 329 324 316 306 280 247 251 233 192 171 167 160 147 142 133 146 9 3 338 332 324 354 359 328 120 118 132 147 164 167 170 185 200 207 205 202 203 201 206 216 214 212 215 216 214 214 212 189 155 167 182 202 239 226 202 207 200 200 200 207 214 220 222 222 222 208 205 208 208 197 204 209 214 229 244 253 273 290 300
324 333 338 331 329 327 327 325 318 307 296 271 237 236 232 197 170 155 156 147 143 149 152 147 256 299 340 7 49 30 22 38 103 119 115 140 146 157 179 195 204 211 205 207 209 211 214 214 214 221 221 215 220 169 167 175 185 197 211 237 224 211 208 202 200 203 209 212 218 217 220 222 208 203 215 212 204 200 207 215 213 226 252 266 284
324 325 332 332 328 327 326 326 321 312 304 285 260 234 227 211 182 166 160 152 143 138 149 147 164 253 304 316 112 110 87 72 48 80 136 119 124 117 136 163 163 199 214 216 212 212 219 219 217 220 222 226 229 164 174 178 189 196 205 214 234 225 219 214 205 203 204 207 207 215 222 216 219 209 214 217 213 201 193 197 207 215 219 215 220
323 322 323 328 330 328 326 326 325 316 310 294 260 240 221 199 180 177 178 166 145 135 136 140 158 105 335 331 38 82 89 86 81 74 62 106 108 118 140 137 145 162 185 208 220 222 218 218 222 226 221 222 231 145 175 178 188 193 199 205 226 232 227 220 217 210 207 203 202 205 213 224 219 215 215 217 217 210 198 204 212 210 220 220 214
321 317 317 325 332 329 327 325 325 320 321 305 275 257 224 211 197 188 179 170 159 142 139 148 154 160 157 262 358 63 97 104 103 104 106 104 106 102 112 129 144 149 157 175 199 225 226 227 223 222 232 237 224 155 173 181 185 190 172 198 221 228 227 223 216 215 213 209 206 203 206 212 218 222 206 208 226 224 211 211 211 209 216 221 226
304 310 313 319 325 328 329 326 326 329 325 326 293 256 237 217 199 188 184 181 181 170 164 170 168 165 164 159 144 108 63 81 104 116 110 106 106 100 92 94 137 153 169 174 177 196 214 222 225 230 216 227 240 183 174 181 188 172 170 213 217 220 225 224 222 217 214 216 213 208 207 208 209 219 191 181 199 228 223 223 224 221 219 222 226
283 299 305 312 318 324 333 332 330 326 328 324 320 258 221 208 201 188 180 175 178 176 176 175 169 166 156 158 156 147 147 111 91 91 99 105 108 107 96 83 94 110 109 51 245 221 204 203 208 233 247 247 232 217 185 185 175 171 194 218 218 217 224 227 226 220 219 217 217 213 221 214 211 214 171 177 185 197 221 225 227 225 223 225 222
252 275 297 308 317 323 325 334 330 329 329 326 324 286 223 194 173 169 174 184 181 170 173 163 154 152 161 161 156 147 144 127 115 103 99 99 99 100 107 123 117 114 105 148 270 192 228 227 197 216 85 281 250 188 189 176 174 183 199 232 223 219 221 223 226 221 218 221 220 205 207 229 230 213 165 180 181 190 213 222 227 231 233 228 221
255 253 267 278 293 317 323 330 332 328 326 323 323 315 280 180 165 171 182 176 173 173 173 173 168 160 161 152 164 155 161 153 138 134 110 85 85 85 84 81 53 90 92 60 355 49 329 310 229 259 227 226 248 214 156 165 170 183 206 238 268 246 233 224 227 229 219 218 219 221 191 205 226 240 170 184 181 192 207 214 222 230 237 236 230
254 249 242 249 264 274 320 324 329 330 330 321 321 326 322 341 176 172 160 161 163 176 176 175 174 172 166 169 173 176 175 171 155 150 144 137 94 79 63 54 60 62 39 71 92 313 314 286 164 216 224 240 249 237 140 156 164 188 202 204 242 248 250 248 243 239 244 229 220 218 231 194 202 217 189 186 195 197 205 214 212 224 227 241 15
246 233 218 228 239 275 281 324 334 335 328 322 322 324 337 340 339 30 58 35 14 313 210 211 189 185 185 182 182 183 185 184 181 174 172 167 154 151 109 76 25 35 36 21 339 284 248 262 293 294 191 234 138 186 223 141 158 190 199 204 238 254 284 290 289 262 260 259 241 229 234 193 190 203 208 188 195 204 212 222 222 216 220 188 160
274 248 215 211 228 239 269 321 358 341 333 320 324 325 331 336 335 347 353 346 329 318 300 257 215 215 198 192 189 189 189 192 192 191 193 191 180 195 203 202 198 210 262 306 298 287 290 260 241 222 260 229 190 161 214 186 149 194 211 212 231 265 304 309 276 258 245 250 264 264 251 357 188 200 206 197 194 201 206 226 233 236 228 217 142
285 264 246 202 221 218 244 262 41 7 340 322 325 328 328 328 319 325 337 333 321 300 281 250 225 225 222 209 198 190 201 203 195 194 199 207 205 215 228 242 228 251 254 249 254 272 270 278 264 251 212 216 206 186 156 197 177 191 205 208 221 234 243 258 286 288 295 272 279 284 330 354 337 240 208 201 199 193 208 222 234 244 253 262 149
287 280 259 221 227 225 222 244 201 68 4 318 312 315 318 313 309 324 319 318 316 299 281 253 226 210 214 220 224 221 212 209 202 199 202 204 211 211 230 237 242 244 253 260 268 270 268 269 270 258 255 243 218 215 179 169 183 188 207 211 225 224 243 222 252 276 275 286 320 327 325 330 338 306 255 222 204 203 213 220 220 229 238 209 206
284 282 272 257 246 222 228 233 226 186 214 286 297 305 308 303 301 301 295 287 287 298 305 302 297 280 249 235 228 224 229 225 220 216 214 217 215 211 217 227 231 240 247 256 266 276 278 279 275 267 247 236 231 252 240 174 182 184 201 212 221 221 239 212 223 288 296 306 301 297 301 299 287 259 230 237 229 219 214 223 219 212 215 217 212
282 282 285 274 268 253 233 219 212 207 208 296 293 292 289 284 288 290 280 275 285 292 296 304 302 293 277 265 260 257 246 226 217 232 240 232 224 220 219 225 234 236 238 249 258 267 269 267 274 269 272 255 225 227 242 241 213 180 178 169 193 218 217 212 198 216 222 255 260 262 275 286 286 282 256 251 243 219 199 220 222 217 215 213 210
280 283 282 276 267 263 261 246 216 189 173 229 289 289 279 276 283 291 299 300 297 302 299 298 295 288 284 280 273 250 243 257 258 247 235 233 231 231 233 233 237 238 245 246 254 256 260 269 265 268 266 261 249 231 213 205 155 61 7 342 322 328 303 286 284 293 316 330 318 293 254 258 266 268 257 245 239 235 225 226 228 218 216 215 215
283 281 280 279 273 266 257 244 236 197 180 180 226 271 286 293 288 288 291 290 289 287 290 284 281 282 276 272 271 274 273 272 267 260 254 250 251 241 235 238 224 245 239 248 262 261 266 255 263 267 271 266 260 275 50 59 66 50 11 323 309 309 327 303 10 29 341 314 305 284 280 277 271 253 242 235 228 223 222 226 230 227 216 211 209
281 279 276 276 273 268 257 247 239 216 196 191 197 225 261 275 287 298 296 280 271 271 268 267 275 279 278 273 268 268 272 271 270 269 267 261 232 215 240 252 264 196 184 196 220 255 261 264 264 262 261 267 260 88 117 96 106 116 199 214 258 313 308 298 315 330 312 287 268 265 262 261 258 253 242 231 223 217 219 222 222 222 214 206 204
279 278 276 274 274 271 261 247 239 224 217 207 200 209 222 242 259 262 273 271 259 253 255 265 273 272 275 277 276 277 276 274 272 271 271 271 274 210 199 212 217 211 185 201 201 206 231 255 261 263 254 179 5 335 308 295 160 183 204 232 235 229 231 254 296 326 275 253 256 254 253 250 246 246 248 243 232 223 219 220 225 219 212 209 201